Location: Mizzole
(45.4833°N, 11.0500°E)
Time: 15:36:17
(UTC+00:00)

Meteor 2-1 Rocket - Pass Details

Date: 21 October 2019
Orbit: 829 x 908 km, 81.3° (Epoch: 20 November)

Event Time Altitude Azimuth Distance (km) Brightness Sun altitude
Rises 18:15:48 0° 183° (S) 3,356 7.3 -20.8°
Reaches altitude 10° 18:18:11 10° 182° (S) 2,429 6.5 -21.3°
Maximum altitude 18:23:39 74° 98° (E) 870 4.0 -22.2°
Drops below altitude 10° 18:29:14 10° 14° (NNE) 2,476 6.6 -23.2°
Sets 18:31:41 0° 13° (NNE) 3,426 7.3 -23.6°
